COSMOS 886 DEB, 9961

Orbit data source: Space-Track

COSMOS 886 DEB, 9961 is space debris in LEO originally from a launch on Mon, 27 Dec 1976 UTC launched from the Tyuratam Missile And Space Complex (TTMTR). Debris objects in space refer to the collection of defunct objects orbiting the Earth. Examples of debris include non-operational satellites, rocket bodies, and fragments generated from explosions, collisions, or faulty payload assembly.

Loading next visibility...
Identifier
9961, 1976-126BB
Orbit
LEO
Country
Flag of CISCIS
Related business
Manufacturer
Unknown
Mission
Spacecraft
Bus & Motor
Unknown
Mass
Unknown
Launch date (UTC)
1976-12-27 (49 years ago)
Launch vehicle
Unknown
Launch site
Tyuratam Missile And Space Complex (TTMTR)
Object type
Payload
Rocket body
Debris
Shape & HBR
Unknown shape, 0.2 m
Radar Cross Section
Medium (>0.1 m² and <1 m²)

Expand to show TLE details & history
Last TLE update: 6 hours ago

TLE from 6 hours ago
0 COSMOS 886 DEB
1 09961U 76126BB  26175.30748575  .00002837  00000-0  69045-3 0  9994
2 09961  65.7934 192.2359 0528236  59.0868 306.1035 13.93612159401614
Epoch: 2026-06-24T07:22Z
TLE epoch observation values (Epoch: 2026-06-24T07:22:46.768Z)
Latitude
-0.00007°
Longitude
169.07443°
Altitude
704.852 km
Speed
7.613 km/s
True Right ascension
12h 48m 56s
True Declination
0° 00' 00"
Sunlit
Object was in daylight at epoch
Visualization orbit readout
Latitude
Unknown
Longitude
Unknown
Altitude
Unknown
Speed
Unknown
Apparent Right ascension
Unknown
Apparent Declination
Unknown
Sunlit
N/A
Visualization observer readout
Local Sidereal Time
00:19:55
Azimuth
Unknown
Elevation
Unknown
Doppler factor
Unknown
Orbital elements
Apogee altitude
1,299.725 km
Perigee altitude
529.278 km
Semi-major axis
7,292.639 km
Eccentricity
0.05282
Inclination
65.7934°
RAAN
192.2359°
Arg. of periapsis
59.0868°
True anomaly
301.0219°
Mean anomaly
306.1035°
Eccentric anomaly
303.58208°
Mean motion
3.48511 °/min
Orbital period
103.3 mins
BSTAR
0.00069045
Loading maneuver chart data...
Computing Atmospheric mass density...
Loading historical data...
Loading historical data...
Loading historical data...
Loading historical data...
Loading historical data...
Loading historical data...
Loading historical data...

Documentation

Showing up to 5 results
|